When you browse on this site, cookies collect data to enhance your experience and personalize the content and advertising you see.
Visit our Privacy Policy to learn more. By continuing to use the site, you agree to this use of cookies and data.
  • In Hungary
  • List of Countries
  • For 7 days
  • Water Temperature
  • Weather Map
  • News
  • Weather Widgets
  • user-avatar
    Login

    Hourly Weather Gabrovo

    Today, 28 May, Thursday

    Time Temperature Precipitation Wind Pressure Humidity
    00:00 +7°C° 0 mm 2 mps 704 mmHg 89%
    01:00 +8°C° 0 mm 1 mps 703 mmHg 89%
    02:00 +8°C° 0 mm 1 mps 703 mmHg 88%
    03:00 +8°C° 0 mm 1 mps 703 mmHg 89%
    04:00 +6°C° 0 mm 2 mps 703 mmHg 89%
    05:00 +6°C° 0 mm 2 mps 702 mmHg 90%
    06:00 +8°C° 0.2 mm 1 mps 702 mmHg 87%
    07:00 +10°C° 0.2 mm 1 mps 702 mmHg 84%
    08:00 +11°C° 0.2 mm 1 mps 703 mmHg 81%
    09:00 +12°C° 0.6 mm 2 mps 702 mmHg 78%
    10:00 +13°C° 0.6 mm 2 mps 702 mmHg 76%
    11:00 +13°C° 0.6 mm 2 mps 702 mmHg 73%
    12:00 +14°C° 0.5 mm 2 mps 702 mmHg 70%
    13:00 +15°C° 0.5 mm 2 mps 702 mmHg 67%
    14:00 +16°C° 0.5 mm 2 mps 701 mmHg 64%
    15:00 +15°C° 0.7 mm 2 mps 701 mmHg 66%
    16:00 +15°C° 0.7 mm 2 mps 701 mmHg 67%
    17:00 +15°C° 0.7 mm 2 mps 701 mmHg 68%
    18:00 +13°C° 0.5 mm 1 mps 700 mmHg 73%
    19:00 +12°C° 0.5 mm 1 mps 700 mmHg 78%
    20:00 +10°C° 0.5 mm 1 mps 700 mmHg 83%
    21:00 +10°C° 0.1 mm 1 mps 700 mmHg 83%
    22:00 +9°C° 0.1 mm 1 mps 700 mmHg 84%
    23:00 +9°C° 0.1 mm 1 mps 700 mmHg 84%

    Tomorrow, 29 May, Friday

    Time Temperature Precipitation Wind Pressure Humidity
    00:00 +8°C° 0 mm 1 mps 700 mmHg 85%
    01:00 +8°C° 0 mm 1 mps 700 mmHg 85%
    02:00 +8°C° 0 mm 1 mps 700 mmHg 85%
    03:00 +8°C° 0.1 mm 1 mps 700 mmHg 86%
    04:00 +7°C° 0.1 mm 1 mps 700 mmHg 87%
    05:00 +7°C° 0.1 mm 1 mps 700 mmHg 87%
    06:00 +9°C° 0.1 mm 1 mps 701 mmHg 84%
    07:00 +11°C° 0.1 mm 1 mps 701 mmHg 80%
    08:00 +13°C° 0.1 mm 1 mps 701 mmHg 76%
    09:00 +14°C° 0.5 mm 1 mps 701 mmHg 71%
    10:00 +15°C° 0.5 mm 2 mps 701 mmHg 67%
    11:00 +16°C° 0.5 mm 2 mps 702 mmHg 62%
    12:00 +17°C° 0.8 mm 2 mps 701 mmHg 61%
    13:00 +17°C° 0.8 mm 2 mps 701 mmHg 60%
    14:00 +18°C° 0.8 mm 2 mps 701 mmHg 59%
    15:00 +17°C° 0.9 mm 2 mps 701 mmHg 62%
    16:00 +17°C° 0.9 mm 2 mps 701 mmHg 64%
    17:00 +17°C° 0.9 mm 2 mps 700 mmHg 67%
    18:00 +15°C° 0.4 mm 2 mps 700 mmHg 72%
    19:00 +13°C° 0.4 mm 1 mps 700 mmHg 76%
    20:00 +12°C° 0.4 mm 1 mps 700 mmHg 81%
    21:00 +11°C° 0.2 mm 1 mps 700 mmHg 82%
    22:00 +10°C° 0.2 mm 1 mps 700 mmHg 82%
    23:00 +10°C° 0.2 mm 1 mps 700 mmHg 83%

    Day after tomorrow, 30 May, Saturday

    Time Temperature Precipitation Wind Pressure Humidity
    00:00 +9°C° 0 mm 1 mps 700 mmHg 83%
    01:00 +9°C° 0 mm 1 mps 700 mmHg 83%
    02:00 +9°C° 0 mm 1 mps 699 mmHg 82%
    03:00 +9°C° 0 mm 1 mps 699 mmHg 83%
    04:00 +8°C° 0 mm 1 mps 699 mmHg 84%
    05:00 +8°C° 0 mm 1 mps 699 mmHg 84%
    06:00 +10°C° 0 mm 1 mps 700 mmHg 80%
    07:00 +12°C° 0 mm 1 mps 700 mmHg 76%
    08:00 +14°C° 0 mm 1 mps 701 mmHg 73%
    09:00 +16°C° 0 mm 1 mps 701 mmHg 67%
    10:00 +18°C° 0 mm 1 mps 701 mmHg 61%
    11:00 +20°C° 0 mm 1 mps 701 mmHg 56%
    12:00 +20°C° 0.7 mm 1 mps 701 mmHg 57%
    13:00 +20°C° 0.7 mm 1 mps 701 mmHg 58%
    14:00 +20°C° 0.7 mm 1 mps 701 mmHg 59%
    15:00 +20°C° 0.8 mm 1 mps 701 mmHg 63%
    16:00 +19°C° 0.8 mm 1 mps 700 mmHg 66%
    17:00 +19°C° 0.8 mm 1 mps 700 mmHg 69%
    18:00 +18°C° 0.7 mm 1 mps 700 mmHg 74%
    19:00 +15°C° 0.7 mm 1 mps 700 mmHg 78%
    20:00 +14°C° 0.7 mm 1 mps 699 mmHg 83%
    21:00 +13°C° 0.2 mm 1 mps 699 mmHg 83%
    22:00 +13°C° 0.2 mm 1 mps 700 mmHg 84%
    23:00 +12°C° 0.2 mm 1 mps 700 mmHg 85%

    31 May, Sunday

    Time Temperature Precipitation Wind Pressure Humidity
    00:00 +12°C° 0.1 mm 1 mps 699 mmHg 85%
    01:00 +11°C° 0.1 mm 1 mps 699 mmHg 86%
    02:00 +11°C° 0.1 mm 1 mps 699 mmHg 86%
    03:00 +11°C° 0 mm 1 mps 699 mmHg 86%
    04:00 +10°C° 0 mm 1 mps 699 mmHg 87%
    05:00 +10°C° 0 mm 1 mps 699 mmHg 87%
    06:00 +11°C° 0 mm 1 mps 699 mmHg 84%
    07:00 +12°C° 0 mm 0 mps 699 mmHg 80%
    08:00 +14°C° 0 mm 0 mps 699 mmHg 76%
    09:00 +16°C° 0.7 mm 1 mps 700 mmHg 73%
    10:00 +18°C° 0.7 mm 1 mps 700 mmHg 70%
    11:00 +19°C° 0.7 mm 1 mps 700 mmHg 67%
    12:00 +19°C° 1.4 mm 1 mps 699 mmHg 68%
    13:00 +19°C° 1.4 mm 1 mps 699 mmHg 68%
    14:00 +20°C° 1.4 mm 1 mps 699 mmHg 68%
    15:00 +19°C° 1.6 mm 1 mps 698 mmHg 72%
    16:00 +17°C° 1.6 mm 2 mps 698 mmHg 76%
    17:00 +16°C° 1.6 mm 2 mps 698 mmHg 79%
    18:00 +15°C° 0.5 mm 2 mps 698 mmHg 83%
    19:00 +14°C° 0.5 mm 2 mps 698 mmHg 86%
    20:00 +12°C° 0.5 mm 1 mps 697 mmHg 89%
    21:00 +12°C° 0.1 mm 1 mps 697 mmHg 89%
    22:00 +11°C° 0.1 mm 1 mps 697 mmHg 89%
    23:00 +11°C° 0.1 mm 1 mps 698 mmHg 89%

    1 June, Monday

    Time Temperature Precipitation Wind Pressure Humidity
    00:00 +11°C° 0 mm 1 mps 697 mmHg 90%
    01:00 +11°C° 0 mm 1 mps 697 mmHg 90%
    02:00 +11°C° 0 mm 1 mps 697 mmHg 90%
    03:00 +10°C° 0 mm 1 mps 697 mmHg 90%
    04:00 +10°C° 0 mm 1 mps 697 mmHg 90%
    05:00 +9°C° 0 mm 1 mps 697 mmHg 89%
    06:00 +11°C° 0 mm 1 mps 697 mmHg 85%
    07:00 +12°C° 0 mm 1 mps 697 mmHg 81%
    08:00 +13°C° 0 mm 1 mps 698 mmHg 76%
    09:00 +14°C° 0.1 mm 1 mps 698 mmHg 73%
    10:00 +15°C° 0.1 mm 1 mps 698 mmHg 70%
    11:00 +16°C° 0.1 mm 1 mps 698 mmHg 67%
    12:00 +18°C° 0.3 mm 1 mps 698 mmHg 66%
    13:00 +18°C° 0.3 mm 1 mps 698 mmHg 65%
    14:00 +19°C° 0.3 mm 1 mps 697 mmHg 63%
    15:00 +18°C° 0.8 mm 1 mps 697 mmHg 67%
    16:00 +18°C° 0.8 mm 1 mps 697 mmHg 70%
    17:00 +18°C° 0.8 mm 1 mps 697 mmHg 74%
    18:00 +15°C° 0.8 mm 1 mps 697 mmHg 78%
    19:00 +14°C° 0.8 mm 1 mps 697 mmHg 82%
    20:00 +13°C° 0.8 mm 1 mps 696 mmHg 87%
    21:00 +12°C° 0.7 mm 1 mps 697 mmHg 88%
    22:00 +11°C° 0.7 mm 1 mps 697 mmHg 90%
    23:00 +11°C° 0.7 mm 1 mps 697 mmHg 91%

    2 June, Tuesday

    Time Temperature Precipitation Wind Pressure Humidity
    00:00 +10°C° 0.4 mm 1 mps 697 mmHg 92%
    01:00 +10°C° 0.4 mm 1 mps 697 mmHg 92%
    02:00 +9°C° 0.4 mm 0 mps 697 mmHg 92%
    03:00 +9°C° 0.2 mm 0 mps 697 mmHg 92%
    04:00 +10°C° 0.2 mm 1 mps 697 mmHg 92%
    05:00 +10°C° 0.2 mm 1 mps 697 mmHg 92%
    06:00 +10°C° 0.1 mm 0 mps 697 mmHg 89%
    07:00 +11°C° 0.1 mm 0 mps 697 mmHg 86%
    08:00 +13°C° 0.1 mm 0 mps 698 mmHg 83%
    09:00 +14°C° 0.7 mm 1 mps 698 mmHg 83%
    10:00 +15°C° 0.7 mm 1 mps 698 mmHg 82%
    11:00 +16°C° 0.7 mm 2 mps 698 mmHg 82%
    12:00 +16°C° 0.9 mm 2 mps 698 mmHg 79%
    13:00 +17°C° 0.9 mm 2 mps 698 mmHg 77%
    14:00 +17°C° 0.9 mm 2 mps 698 mmHg 75%
    15:00 +18°C° 0.6 mm 2 mps 698 mmHg 74%
    16:00 +19°C° 0.6 mm 1 mps 697 mmHg 74%
    17:00 +19°C° 0.6 mm 1 mps 697 mmHg 73%
    18:00 +16°C° 0.8 mm 1 mps 697 mmHg 78%
    19:00 +15°C° 0.8 mm 1 mps 697 mmHg 83%
    20:00 +13°C° 0.8 mm 1 mps 696 mmHg 88%
    21:00 +13°C° 0.3 mm 1 mps 697 mmHg 89%
    22:00 +13°C° 0.3 mm 1 mps 697 mmHg 89%
    23:00 +12°C° 0.3 mm 1 mps 697 mmHg 89%
    Show more